Regional Weather Roundup
Issued by NWS

Home | Current Version | Previous Version | Text Only | Print | Product List | Glossary Off
Versions: 1 2 3 4 5 6 7 8 9 10 11 12 13 14 15 16 17 18 19 20 21 22 23 24 25 26 27 28 29 30 31 32 33 34 35 36 37 38 39 40 41 42 43 44 45 46 47 48 49 50

504
ASUS45 KTFX 261910
RWRMT
MONTANA REGIONAL WEATHER ROUNDUP
NATIONAL WEATHER SERVICE GREAT FALLS MT
100 PM MDT THU MAY 26 2016

NOTE: "FAIR" INDICATES FEW OR NO CLOUDS BELOW 12000 FEET WITH NO
SIGNIFICANT WEATHER AND/OR OBSTRUCTIONS TO VISIBILITY.

MTZ001>007-043-262000-
WEST OF THE DIVIDE

CITY           SKY/WX    TMP DP  RH WIND       PRES   REMARKS
KALISPELL      LGT RAIN  60  51  72 S12       29.94F
MISSOULA       MOSUNNY   64  46  52 VRB3      29.99F
BUTTE          CLOUDY    59  36  42 N9        30.02F
MULLAN PASS    LGT RAIN  42  40  92 NW5       30.07S FOG
ANACONDA         N/A     57  43  58 N5        30.00F
DEER LODGE       N/A     59  43  55 NW13G18   30.01F
EUREKA           N/A     64  48  55 W3        29.94S
HAMILTON         N/A     64  39  39 S6        29.99F
LIBBY            N/A     64  45  48 CALM      29.97S
$$

MTZ008-052>055-262000-
SOUTHWEST MONTANA

CITY           SKY/WX    TMP DP  RH WIND       PRES   REMARKS
BOZEMAN        CLOUDY    60  42  51 MISG      29.99F
DILLON         SUNNY     61  34  36 CALM      29.99F
ENNIS          SUNNY     61  37  41 NE8       30.05F
$$

MTZ009-010-012-014-046-048-049-054-262000-
EAST SLOPES AND CENTRAL MONTANA

CITY           SKY/WX    TMP DP  RH WIND       PRES   REMARKS
CUT BANK       MOSUNNY   62  45  53 E9        29.93F
GREAT FALLS    CLOUDY    55  49  80 SW7       29.95F
MALMSTROM AFB  CLOUDY    60  48  65 W10       29.95F
HELENA         CLOUDY    62  42  47 SW13      29.97R
CHOTEAU          N/A     61  48  63 SE8       29.95F
$$

MTZ011-013-016-021-045-047-050-051-262000-
NORTH CENTRAL MONTANA

CITY           SKY/WX    TMP DP  RH WIND       PRES   REMARKS
HAVRE            N/A    N/A N/A N/A MISG      29.93S
LEWISTOWN      CLOUDY    59  43  55 NW10G18   29.94F
N BAR RANCH    PTSUNNY   55  39  54 NW15G24   29.95F
CHINOOK          N/A     61  48  63 N7        29.92S
$$

MTZ017>020-022>027-061-062-262000-
NORTHEAST MONTANA

CITY           SKY/WX    TMP DP  RH WIND       PRES   REMARKS
GLASGOW        CLOUDY    59  51  75 NW10      29.83F
JORDAN           N/A     62  45  53 NW17      29.85F
SIDNEY         PTSUNNY   63  52  67 S13       29.80S
WOLF POINT     CLOUDY    62  50  64 NW12      29.82S
$$

MTZ028>42-056>058-262000-
SOUTHCENTRAL AND SOUTHEAST MONTANA

CITY           SKY/WX    TMP DP  RH WIND       PRES   REMARKS
BAKER          PTSUNNY   65  41  41 NW13      29.86S
BILLINGS       PTSUNNY   66  38  35 NW20G30   29.91F
LIVINGSTON     CLOUDY    52  44  74 W5        30.00S
MILES CITY     PTSUNNY   64  46  52 W8        29.86S
FORSYTH          N/A     61  48  63 E5        29.87F
$$

REGIONAL REPORTS...DAKOTAS

CITY           SKY/WX    TMP DP  RH WIND       PRES   REMARKS
WILLISTON      CLOUDY    65  49  56 NW7       29.80F
MINOT          CLOUDY    66  55  67 VRB5      29.79S
DICKINSON      LGT RAIN  59  49  69 W20G25    29.83R
BEACH            N/A     59  45  58 S6        29.87F
CROSBY         LGT RAIN  54  54 100 SE12      29.85R
WATFORD CITY   HVY RAIN  55  46  71 SW15G24   29.82R
BISMARCK       PTSUNNY   73  49  42 SW7       29.80S
GRAND FORKS    CLOUDY    66  56  70 W12       29.75R
FARGO          PTSUNNY   69  55  60 W15       29.79R
BUFFALO SD       N/A     66  39  37 NW31G39   29.81R
RAPID CITY     PTSUNNY   67  45  45 NE9       29.89F
$$

REGIONAL REPORTS...WYOMING/IDAHO/WASHINGTON

CITY           SKY/WX    TMP DP  RH WIND       PRES   REMARKS
GILLETTE       PTSUNNY   60  43  53 NW7       29.94S
SHERIDAN       CLOUDY    63  45  51 W8        29.93F
BUFFALO WY       N/A     58  40  51 N9        29.96F
CODY           SUNNY     57  37  47 NW3       29.95F
YELLOWSTONE LA   N/A     49  32  52 VRB5      30.08F
IDAHO FALLS    MOSUNNY   60  41  49 W5        30.02F
SALMON         CLOUDY    63  37  39 CALM      29.98F
BOISE          SUNNY     70  41  34 W15       30.00F
SPOKANE        PTSUNNY   62  42  47 S13       30.02F
$$

REGIONAL REPORTS...ALBERTA

CITY           SKY/WX    TMP DP  RH WIND       PRES   REMARKS
EDMONTON       PTSUNNY   66  48  52 CALM      29.86F
CALGARY        MOSUNNY   64  43  45 E7        29.88F
LETHBRIDGE     MOSUNNY   64  46  52 SE9G29    29.90F
MEDICINE HAT   MOSUNNY   66  46  48 E6        29.90F
WATERTON GATE    N/A     63  43  48 SW13G22     N/A
CARDSTON         N/A     59  46  63 NE8         N/A
MILK RIVER       N/A     64  45  48 E3          N/A
ONEFOUR          N/A     64  48  55 E6          N/A
$$

REGIONAL REPORTS...SASKATCHEWAN

CITY           SKY/WX    TMP DP  RH WIND       PRES   REMARKS
SWIFT CURRENT  PTSUNNY   59  48  67 N10       29.90S
REGINA         LGT RAIN  59  54  82 E10       29.89R
SASKATOON      PTSUNNY   70  50  49 S8        29.89S
CYPRESS HILLS    N/A     54  45  71 NE5         N/A
ROCKGLEN         N/A     54  52  94 N12G18      N/A
ASSINIBOIA       N/A     63  50  63 W8          N/A
$$




USA.gov is the U.S. government's official web portal to all federal, state and local government web resources and services.